{"data":{"norad_id":49176,"intl_designator":"2021-082AY","name":"STARLINK-3069","alt_names":[],"object_type":"PAYLOAD","status":"ACTIVE","operator":null,"country":"US","launch_date":"2021-09-14","launch_site_code":"AFWTR","launch_vehicle":null,"mission":null,"orbit_class":"UNKNOWN","rcs_meters":null,"size_class":null,"mass_kg":null,"dimensions":null,"purposes":["comms"],"wikipedia_slug":null,"has_3d_model":false,"image_url":null,"decayed_at":null,"tle_current":{"epoch":"2026-05-25T03:29:15.279072Z","epoch_age_seconds":56342,"freshness":"FRESH","line1":"1 49176U 21082AY  26145.14531573  .00000171  00000+0  22098-4 0  9990","line2":"2 49176  70.0007  61.6813 0002790 268.4745  91.6094 14.98329908258414","mean_motion":14.98329908,"eccentricity":0.000279,"inclination_deg":70.0007,"raan_deg":61.6813,"arg_perigee_deg":268.4745,"mean_anomaly_deg":91.6094,"bstar":2.2098e-5,"rev_number":25841,"period_min":96.107005026826,"perigee_km":570.11707155089,"apogee_km":573.99527934279,"semimajor_km":6950.1931754468,"source":"CELESTRAK","updated_at":"2026-05-25T13:38:16.792974Z"}}}